Location: Katowice
(50.2611°N, 19.0242°E)
Time: 16:50:19
(UTC+02:00)

Tiros 1 - Pass Details

Date: 26 August 2019
Orbit: 630 x 664 km, 48.4° (Epoch: 22 September)

Event Time Altitude Azimuth Distance (km) Brightness Sun altitude
Exits shadow 04:46:30 - 273° (W) 2,132 9.3 -9.9°
Reaches altitude 10° 04:46:49 10° 271° (W) 2,024 9.2 -9.9°
Maximum altitude 04:50:55 31° 209° (SSW) 1,113 7.9 -9.3°
Drops below altitude 10° 04:55:03 10° 147° (SSE) 2,035 9.8 -8.7°
Sets 04:57:35 0° 138° (SE) 2,948 10.7 -8.4°
